Location: Shenandoah County Park
(38.9356°N, 78.4524°W)
Time: 19:54:42
(UTC-05:00)

Courier 1B - Visible Passes

Search period start: 03 December 2023 00:00
Search period end: 13 December 2023 00:00
Orbit: 962 x 1208 km, 28.3° (Epoch: 03 December)

Date Brightness Start Highest point End Pass type
(mag) Time Alt. Az. Time Alt. Az. Time Alt. Az.
08 Dec 10.1 06:50:09 10° SSW 06:54:30 17° SSE 06:58:43 10° ESE visible
09 Dec 10.2 05:57:30 10° S 06:00:51 14° SSE 06:04:08 10° SE visible
10 Dec 10.4 05:06:21 10° SSE 05:07:12 10° SSE 05:08:04 10° SE visible
11 Dec 9.9 06:01:27 10° SSW 06:06:44 21° SSE 06:11:51 10° ESE visible
12 Dec 10.0 05:08:22 10° SSW 05:13:03 17° SSE 05:17:36 10° ESE visible
